Regional Weather Roundup
Issued by NWS State College, PA

Home | Current Version | Previous Version | Text Only | Print | Product List | Glossary On
Versions: 1 2 3 4 5 6 7 8 9 10 11 12 13 14 15 16 17 18 19 20 21 22 23 24 25 26 27 28 29 30 31 32 33 34 35 36 37 38 39 40 41 42 43 44 45 46 47 48 49 50
000
ASUS41 KCTP 201310
RWRCTP

REGIONAL WEATHER ROUNDUP
NATIONAL WEATHER SERVICE STATE COLLEGE PA
900 AM EDT WED AUG 20 2014

Note: "fair" indicates few or no clouds below 12,000 feet with no
significant weather and/or obstructions to visibility.

* = STATION THAT DOES NOT REPORT PRECIPITATION /E.G. RAIN...SNOW...ETC/
    THUNDER OR FOG.

PAZ002>004-007>009-013>016-020>023-029>032-201400-
WESTERN PENNSYLVANIA

CITY           SKY/WX    TMP DP  RH WIND       PRES   REMARKS
ERIE           CLOUDY    68  62  81 S13       29.88R
MEADVILLE      LGT RAIN  65  62  90 S10       29.93S FOG
FRANKLIN*      CLOUDY    63  61  94 S14       29.97R
NEW CASTLE     NOT AVBL
BEAVER COUNTY  RAIN      64  64 100 SE5       29.95F
BUTLER*        CLOUDY    64  61  88 CALM      30.00R
PITTSBURGH INT LGT RAIN  65  64  97 SE6       29.97R
PITTSBURGH     HVY RAIN  64  63  94 SE7       29.98R VSB 1/2
INDIANA*       FOG       64  64 100 SE9       30.01F VSB 1/2
LATROBE        LGT RAIN  66  66 100 E9        29.95F FOG
WASHINGTON CO* CLOUDY    64  63  94 CALM      29.98F
$$

PAZ004>006-010>012-017>019-024>028-033>037-041-042-045-046-049>053-201400-
CENTRAL PENNSYLVANIA

CITY           SKY/WX    TMP DP  RH WIND       PRES   REMARKS
BRADFORD       CLOUDY    66  62  87 S5        29.98R
DUBOIS         CLOUDY    66  63  90 CALM      29.97R
CLEARFIELD     LGT RAIN  64  64 100 CALM      29.98R VSB 1
JOHNSTOWN      CLOUDY    65  63  93 W6        30.01R FOG
ALTOONA        CLOUDY    71  69  93 S8        29.98R FOG
STATE COLLEGE  CLOUDY    66  66 100 CALM      29.97R FOG
WILLIAMSPORT   PTSUNNY   69  64  84 SE3       29.95R
SELINSGROVE    CLOUDY    68  67  96 CALM      29.98R FOG
FT INDIANTOWN  LGT RAIN  70  66  88 NE2       29.99S
CAPITAL CITY   CLOUDY    71  64  78 E5        29.97S
HARRISBURG     CLOUDY    73  64  73 S7        29.97R
YORK           PTSUNNY   71  63  75 SE6       29.98R
$$

PAZ038>040-043-044-047-048-054-055-060>062-067>071-201400-
EASTERN PENNSYLVANIA

CITY           SKY/WX    TMP DP  RH WIND       PRES   REMARKS
SCRANTON       SUNNY     73  61  65 VRB6      29.98S
MOUNT POCONO   PTSUNNY   68  61  78 S8        30.03R
ALLENTOWN      PTSUNNY   73  63  70 S3        29.99S
QUAKERTOWN*    MOSUNNY   72  64  78 MISG      30.01R
READING        MOSUNNY   74  65  73 VRB3      29.98R
LANCASTER      CLOUDY    71  64  78 SE6       29.99R
COATESVILLE    PTSUNNY   72  68  88 SE5       30.01R
POTTSTOWN      SUNNY     73  65  75 CALM      30.01R
BLUE BELL      MOSUNNY   73  66  78 CALM      29.98S
DOYLESTOWN     PTSUNNY   70  65  84 S5        30.00R
WILLOW GROVE   NOT AVBL
NORTH PHILA    MOSUNNY   74  63  68 SE6       30.00S
PHILADELPHIA   PTSUNNY   74  65  73 CALM      29.99R
$$



USA.gov is the U.S. government's official web portal to all federal, state and local government web resources and services.